Showing default

SATELIOT_2, 60534

Orbit data source: Space-Track

SATELIOT_2, 60534 is a payload satellite owned by Sateliot (ES) in SSO that was launched on Fri, 16 Aug 2024 UTC via an FALCON 9 launch vehicle from the Air Force Western Test Range (AFWTR). Payload-class satellites include a variety of spacecraft equipped with specific instruments for various scientific and technological missions. These include communications satellites like Starlink; space stations such as the ISS; scientific satellites like the Hubble; Earth observation satellites from companies like Planet Labs, Umbra, and HawkEye 360; GPS; miniature CubeSats for education and research; and military/defense satellites.

Loading next visibility...
Identifier
60534, 2024-149BU
Orbit
SSO
Country
Flag of ESES / SPN
Related business
Manufacturer
Endurosat
Mission
Operational Commercial Communications
Bus & Motor
CUBESAT 6U, Unknown motor
Mass
7.407 kg wet, 7.407 kg dry
Launch date (UTC)
2024-08-16 (2 years ago)
Launch vehicle
FALCON 9
Launch site
Air Force Western Test Range (AFWTR)
Object type
Payload
Rocket body
Debris
Shape & HBR
Box + 2 Pan, 0.2 m
Radar Cross Section
0.092 m², Medium (>0.1 m² and < 1m²)

Expand to show TLE details & history
Last TLE update: 9 hours ago

TLE from 9 hours ago
0 SATELIOT_2
1 60534U 24149BU  26133.45270543  .00000571  00000-0  55614-4 0  9991
2 60534  97.6833 209.0446 0001340 109.4874 250.6492 14.96227877 94770
Epoch: 2026-05-13T10:51Z
TLE epoch observation values (Epoch: 2026-05-13T10:51:53.749Z)
Latitude
-0.00003°
Longitude
174.85813°
Altitude
581.923 km
Speed
7.569 km/s
True Right ascension
13h 56m 10s
True Declination
0° 00' 00"
Sunlit
Object was in full shadow at epoch
Visualization orbit readout
Latitude
Unknown
Longitude
Unknown
Altitude
Unknown
Speed
Unknown
Apparent Right ascension
Unknown
Apparent Declination
Unknown
Sunlit
N/A
Visualization observer readout
Local Sidereal Time
04:02:25
Azimuth
Unknown
Elevation
Unknown
Doppler factor
Unknown
Orbital elements
Apogee altitude
576.506 km
Perigee altitude
574.642 km
Semi-major axis
6,953.711 km
Eccentricity
0.00013
Inclination
97.6833°
RAAN
209.0446°
Arg. of periapsis
109.4874°
True anomaly
250.63471°
Mean anomaly
250.6492°
Eccentric anomaly
250.64196°
Mean motion
3.74299 °/min
Orbital period
96.18 mins
BSTAR
0.000055614
Loading maneuver chart data...
Computing Atmospheric mass density...
Loading historical data...
Loading historical data...
Loading historical data...
Loading historical data...
Loading historical data...
Loading historical data...
Loading historical data...

Documentation

Showing up to 5 results
|